Home   Weather   Kornwestheim   Past weeks
Flag for Germany

Past Weather in Kornwestheim, Baden-Württemberg, Germany — Yesterday and Last 2 Weeks

Now
79 °F

Passing clouds.


Feels Like: 80 °F
Forecast: 78 / 56 °F
Wind: 6 mph from Northeast

Location: Stuttgart-Echterdingen

Current Time: Sep 15, 2019 at 6:23:21 pm

Latest Report: Sep 15, 2019 at 5:50 pm


Visibility: N/A

Pressure: 30.18 "Hg

Humidity: 51%

Dew Point: 59 °F

Location of KornwestheimLocation

Past Weather in Kornwestheim — Graph

°F

Kornwestheim Temperature Yesterday

Maximum temperature yesterday: 75 °F (at 3:50 pm)
Minimum temperature yesterday: 57 °F (at 2:50 am)
Average temperature yesterday: 65 °F

High & Low Weather Summary for the Past Weeks

 TemperatureHumidityPressure
High86 °F (Aug 31, 5:20 pm)100% (Sep 8, 8:50 pm)30.48 "Hg (Sep 8, 8:50 pm)
Low43 °F (Sep 10, 6:50 am)28% (Sep 4, 5:20 pm)29.89 "Hg (Aug 31, 6:20 pm)
Average61 °F69%30.18 "Hg
* Reported Aug 31 5:20 pm — Sep 15 5:20 pm, Kornwestheim. Weather by CustomWeather, © 2019

Note: Actual official high and low records may vary slightly from our data, if they occured in-between our weather recording intervals... More about our weather records

Advertising

Kornwestheim Weather History for the Previous 24 Hours

Scroll right to see more
 ConditionsComfort  
Time TempWeatherWind HumidityBarometerVisibility
5:20 pm
Sun, Sep 15
79 °FPassing clouds.6 mph54%30.18 "HgN/A
4:50 pm81 °FPassing clouds.6 mph51%30.18 "HgN/A
4:20 pm79 °FPassing clouds.2 mph54%30.18 "HgN/A
3:50 pm79 °FPassing clouds.6 mph54%30.21 "HgN/A
3:20 pm79 °FPassing clouds.7 mph54%30.21 "HgN/A
2:50 pm79 °FPassing clouds.7 mph54%30.21 "HgN/A
2:20 pm79 °FPassing clouds.5 mph54%30.24 "HgN/A
1:50 pm77 °FPassing clouds.3 mph57%30.24 "HgN/A
1:20 pm77 °FPassing clouds.7 mph57%30.24 "HgN/A
12:50 pm77 °FPassing clouds.5 mph57%30.27 "HgN/A
12:20 pm75 °FPassing clouds.6 mph61%30.27 "HgN/A
11:50 am75 °FPassing clouds.5 mph61%30.27 "HgN/A
11:20 am73 °FPassing clouds.5 mph65%30.27 "HgN/A
10:50 am72 °FPassing clouds.3 mph65%30.27 "HgN/A
10:20 am68 °FPassing clouds.3 mph73%30.27 "HgN/A
9:50 am64 °FSunny.2 mph78%30.27 "Hg10 mi
9:20 am61 °FPassing clouds.3 mph88%30.30 "HgN/A
8:50 am57 °FPassing clouds.2 mph94%30.30 "HgN/A
8:20 am55 °FPassing clouds.1 mph94%30.30 "HgN/A
7:50 am54 °FPassing clouds.1 mph94%30.30 "HgN/A
7:20 am50 °FCool.1 mph100%30.30 "Hg4 mi
6:50 am50 °FCool.1 mph100%30.30 "Hg2 mi
6:20 am52 °FCool.1 mph100%30.30 "Hg5 mi
5:50 am52 °FLight fog.1 mph100%30.30 "Hg5 mi
5:20 am52 °FLight fog.1 mph100%30.30 "HgN/A
4:50 am52 °FLight fog.No wind100%30.30 "HgN/A
4:20 am52 °FClear.1 mph100%30.30 "Hg10 mi
3:50 am54 °FClear.1 mph94%30.30 "Hg10 mi
3:20 am54 °FClear.3 mph94%30.30 "Hg10 mi
2:50 am55 °FClear.2 mph88%30.33 "Hg10 mi
2:20 am54 °FClear.2 mph94%30.33 "Hg10 mi
1:50 am55 °FClear.1 mph94%30.33 "Hg10 mi
1:20 am55 °FClear.1 mph94%30.33 "Hg10 mi
12:50 am57 °FClear.1 mph88%30.33 "Hg10 mi
12:20 am57 °FClear.2 mph94%30.33 "Hg10 mi
11:50 pm
Sat, Sep 14
57 °FClear.1 mph88%30.36 "Hg10 mi
11:20 pm59 °FClear.2 mph82%30.36 "Hg10 mi
10:50 pm59 °FClear.1 mph82%30.36 "Hg10 mi
10:20 pm63 °FClear.1 mph77%30.36 "Hg10 mi
9:50 pm64 °FClear.2 mph73%30.36 "Hg10 mi
9:20 pm64 °FPassing clouds.3 mph73%30.36 "HgN/A
8:50 pm68 °FPassing clouds.5 mph64%30.36 "HgN/A
8:20 pm68 °FPassing clouds.5 mph64%30.36 "HgN/A
7:50 pm70 °FPassing clouds.5 mph60%30.36 "HgN/A
7:20 pm72 °FPassing clouds.3 mph57%30.36 "HgN/A
6:50 pm72 °FPassing clouds.5 mph61%30.36 "HgN/A
6:20 pm73 °FPassing clouds.7 mph53%30.36 "HgN/A
Weather by CustomWeather, © 2019

See weather overview